Time,TemperatureF,DewpointF,PressureIn,WindDirection,WindDirectionDegrees,WindSpeedMPH,WindSpeedGustMPH,Humidity,HourlyPrecipIn,Conditions,Clouds,dailyrainin,SoftwareType,DateUTC
2013-12-04 00:00:00,49.8,47.3,29.97,ESE,113,0.0,0.0,91,0.00,,---,0.00,VWS V14.01,2013-12-04 05:00:00,
2013-12-04 00:01:00,49.9,47.4,29.97,ESE,113,0.0,0.0,91,0.00,,---,0.00,VWS V14.01,2013-12-04 05:01:00,
2013-12-04 00:02:00,50.0,47.5,29.97,ESE,113,0.0,0.0,91,0.00,,---,0.00,VWS V14.01,2013-12-04 05:02:00,
2013-12-04 00:03:00,50.0,47.5,29.97,ESE,113,0.0,1.0,91,0.00,,---,0.00,VWS V14.01,2013-12-04 05:03:00,
2013-12-04 00:07:00,50.1,47.6,29.97,ESE,113,0.0,1.0,91,0.00,,---,0.00,VWS V14.01,2013-12-04 05:07:00,
2013-12-04 00:09:00,50.1,47.3,29.97,ESE,113,0.0,1.0,90,0.00,,---,0.00,VWS V14.01,2013-12-04 05:09:00,
2013-12-04 00:15:00,50.1,47.3,29.97,ESE,113,0.0,0.0,90,0.00,,---,0.00,VWS V14.01,2013-12-04 05:15:00,
2013-12-04 00:20:00,49.9,47.1,29.96,ESE,113,0.0,0.0,90,0.00,,---,0.00,VWS V14.01,2013-12-04 05:20:00,
2013-12-04 00:25:00,49.6,46.8,29.96,ESE,113,0.0,0.0,90,0.00,,---,0.00,VWS V14.01,2013-12-04 05:25:00,
2013-12-04 00:30:00,49.5,47.0,29.96,ESE,113,0.0,0.0,91,0.00,,---,0.00,VWS V14.01,2013-12-04 05:30:00,
2013-12-04 00:35:00,49.5,47.0,29.96,ESE,113,0.0,0.0,91,0.00,,---,0.00,VWS V14.01,2013-12-04 05:35:00,
2013-12-04 00:40:00,49.6,47.4,29.96,ESE,113,0.0,0.0,92,0.00,,---,0.00,VWS V14.01,2013-12-04 05:40:00,
2013-12-04 00:45:00,49.6,47.1,29.97,ESE,113,0.0,0.0,91,0.00,,---,0.00,VWS V14.01,2013-12-04 05:45:00,
2013-12-04 00:50:00,49.7,47.5,29.97,ESE,113,0.0,0.0,92,0.00,,---,0.00,VWS V14.01,2013-12-04 05:50:00,
2013-12-04 00:55:00,49.9,47.7,29.97,ESE,113,0.0,1.0,92,0.00,,---,0.00,VWS V14.01,2013-12-04 05:55:00,
2013-12-04 01:00:00,49.8,47.3,29.96,ESE,113,2.0,2.0,91,0.00,,---,0.00,VWS V14.01,2013-12-04 06:00:00,
2013-12-04 01:05:00,49.5,47.3,29.97,ESE,113,0.0,2.0,92,0.00,,---,0.00,VWS V14.01,2013-12-04 06:05:00,
2013-12-04 01:10:00,49.4,47.5,29.97,ESE,113,0.0,0.0,93,0.00,,---,0.00,VWS V14.01,2013-12-04 06:10:00,
2013-12-04 01:15:00,49.5,47.6,29.97,ESE,113,0.0,0.0,93,0.00,,---,0.00,VWS V14.01,2013-12-04 06:15:00,
2013-12-04 01:20:00,49.6,47.7,29.97,ESE,113,0.0,0.0,93,0.00,,---,0.00,VWS V14.01,2013-12-04 06:20:00,
2013-12-04 01:25:00,49.5,47.8,29.97,ESE,113,0.0,1.0,94,0.00,,---,0.00,VWS V14.01,2013-12-04 06:25:00,
2013-12-04 01:30:00,49.5,47.6,29.97,ESE,113,0.0,0.0,93,0.00,,---,0.00,VWS V14.01,2013-12-04 06:30:00,
2013-12-04 01:35:00,49.5,47.8,29.98,ESE,113,1.0,1.0,94,0.00,,---,0.00,VWS V14.01,2013-12-04 06:35:00,
2013-12-04 01:40:00,49.3,47.7,29.98,ESE,113,0.0,0.0,94,0.00,,---,0.00,VWS V14.01,2013-12-04 06:40:00,
2013-12-04 01:45:00,49.4,48.0,29.98,ESE,113,0.0,0.0,95,0.00,,---,0.00,VWS V14.01,2013-12-04 06:45:00,
2013-12-04 01:51:00,49.4,48.0,29.98,ESE,113,0.0,0.0,95,0.00,,---,0.00,VWS V14.01,2013-12-04 06:51:00,
2013-12-04 01:56:00,49.4,48.0,29.99,ESE,113,0.0,1.0,95,0.00,,---,0.00,VWS V14.01,2013-12-04 06:56:00,
2013-12-04 02:01:00,49.4,48.0,29.99,ESE,113,0.0,1.0,95,0.00,,---,0.00,VWS V14.01,2013-12-04 07:01:00,
2013-12-04 02:06:00,49.5,48.1,29.99,ESE,113,0.0,1.0,95,0.00,,---,0.00,VWS V14.01,2013-12-04 07:06:00,
2013-12-04 02:11:00,49.6,48.2,29.99,ESE,113,0.0,0.0,95,0.00,,---,0.00,VWS V14.01,2013-12-04 07:11:00,
2013-12-04 02:16:00,49.5,47.8,29.99,ESE,113,0.0,0.0,94,0.00,,---,0.00,VWS V14.01,2013-12-04 07:16:00,
2013-12-04 02:21:00,49.5,47.8,29.99,ESE,113,0.0,0.0,94,0.00,,---,0.00,VWS V14.01,2013-12-04 07:21:00,
2013-12-04 02:26:00,49.4,47.8,30.00,ESE,113,0.0,0.0,94,0.00,,---,0.00,VWS V14.01,2013-12-04 07:26:00,
2013-12-04 02:31:00,49.3,47.7,29.99,ESE,113,1.0,1.0,94,0.00,,---,0.00,VWS V14.01,2013-12-04 07:31:00,
2013-12-04 02:36:00,49.2,47.5,29.99,ESE,113,1.0,1.0,94,0.00,,---,0.00,VWS V14.01,2013-12-04 07:36:00,
2013-12-04 02:41:00,49.1,47.7,29.99,ESE,113,0.0,0.0,95,0.00,,---,0.00,VWS V14.01,2013-12-04 07:41:00,
2013-12-04 02:46:00,49.1,47.7,29.99,ESE,113,0.0,0.0,95,0.00,,---,0.00,VWS V14.01,2013-12-04 07:46:00,
2013-12-04 02:51:00,49.2,47.8,29.99,ESE,113,0.0,0.0,95,0.00,,---,0.00,VWS V14.01,2013-12-04 07:51:00,
2013-12-04 02:56:00,49.3,47.9,29.99,ESE,113,0.0,0.0,95,0.00,,---,0.00,VWS V14.01,2013-12-04 07:56:00,
2013-12-04 03:01:00,49.5,48.1,29.99,ESE,113,0.0,0.0,95,0.00,,---,0.00,VWS V14.01,2013-12-04 08:01:00,
2013-12-04 03:06:00,49.7,48.3,29.99,ESE,113,0.0,0.0,95,0.00,,---,0.00,VWS V14.01,2013-12-04 08:06:00,
2013-12-04 03:11:00,49.8,48.4,29.99,ESE,113,0.0,0.0,95,0.00,,---,0.00,VWS V14.01,2013-12-04 08:11:00,
2013-12-04 03:16:00,49.7,48.0,29.99,ESE,113,0.0,0.0,94,0.00,,---,0.00,VWS V14.01,2013-12-04 08:16:00,
2013-12-04 03:21:00,49.7,48.0,29.99,ESE,113,0.0,0.0,94,0.00,,---,0.00,VWS V14.01,2013-12-04 08:21:00,
2013-12-04 03:27:00,49.7,48.0,29.99,ESE,113,0.0,0.0,94,0.00,,---,0.00,VWS V14.01,2013-12-04 08:27:00,
2013-12-04 03:32:00,49.9,48.5,29.99,ESE,113,0.0,0.0,95,0.00,,---,0.00,VWS V14.01,2013-12-04 08:32:00,
2013-12-04 03:37:00,49.8,48.2,29.99,ESE,113,1.0,2.0,94,0.00,,---,0.00,VWS V14.01,2013-12-04 08:37:00,
2013-12-04 03:42:00,49.4,47.8,29.98,ESE,113,1.0,1.0,94,0.00,,---,0.00,VWS V14.01,2013-12-04 08:42:00,
2013-12-04 03:47:00,49.3,47.9,29.98,ESE,113,1.0,2.0,95,0.00,,---,0.00,VWS V14.01,2013-12-04 08:47:00,
2013-12-04 03:52:00,49.3,47.9,29.98,ESE,113,0.0,1.0,95,0.00,,---,0.00,VWS V14.01,2013-12-04 08:52:00,
2013-12-04 03:57:00,49.2,48.1,29.98,ESE,113,1.0,1.0,96,0.00,,---,0.00,VWS V14.01,2013-12-04 08:57:00,
2013-12-04 04:02:00,49.2,48.1,29.98,ESE,113,0.0,0.0,96,0.00,,---,0.00,VWS V14.01,2013-12-04 09:02:00,
2013-12-04 04:07:00,49.2,48.1,29.97,ESE,113,0.0,1.0,96,0.00,,---,0.00,VWS V14.01,2013-12-04 09:07:00,
2013-12-04 04:12:00,49.1,48.0,29.97,ESE,113,0.0,1.0,96,0.00,,---,0.00,VWS V14.01,2013-12-04 09:12:00,
2013-12-04 04:17:00,49.1,48.0,29.97,ESE,113,0.0,1.0,96,0.00,,---,0.00,VWS V14.01,2013-12-04 09:17:00,
2013-12-04 04:22:00,49.1,48.0,29.97,ESE,113,0.0,0.0,96,0.00,,---,0.00,VWS V14.01,2013-12-04 09:22:00,
2013-12-04 04:27:00,49.3,48.2,29.97,ESE,113,0.0,0.0,96,0.00,,---,0.00,VWS V14.01,2013-12-04 09:27:00,
2013-12-04 04:32:00,49.4,48.3,29.97,ESE,113,0.0,0.0,96,0.00,,---,0.00,VWS V14.01,2013-12-04 09:32:00,
2013-12-04 04:37:00,49.4,48.3,29.97,ESE,113,0.0,0.0,96,0.00,,---,0.00,VWS V14.01,2013-12-04 09:37:00,
2013-12-04 04:42:00,49.5,48.4,29.97,ESE,113,0.0,0.0,96,0.00,,---,0.00,VWS V14.01,2013-12-04 09:42:00,
2013-12-04 04:47:00,49.6,48.5,29.97,ESE,113,0.0,0.0,96,0.00,,---,0.00,VWS V14.01,2013-12-04 09:47:00,
2013-12-04 04:53:00,49.5,48.1,29.97,ESE,113,0.0,0.0,95,0.00,,---,0.00,VWS V14.01,2013-12-04 09:53:00,
2013-12-04 04:58:00,49.6,48.2,29.97,ESE,113,0.0,0.0,95,0.00,,---,0.00,VWS V14.01,2013-12-04 09:58:00,
2013-12-04 05:03:00,49.6,48.2,29.97,ESE,113,0.0,0.0,95,0.00,,---,0.00,VWS V14.01,2013-12-04 10:03:00,
2013-12-04 05:08:00,49.6,48.2,29.97,ESE,113,0.0,0.0,95,0.00,,---,0.00,VWS V14.01,2013-12-04 10:08:00,
2013-12-04 05:13:00,49.6,48.2,29.98,ESE,113,0.0,0.0,95,0.00,,---,0.00,VWS V14.01,2013-12-04 10:13:00,
2013-12-04 05:18:00,49.7,48.3,29.98,ESE,113,0.0,0.0,95,0.00,,---,0.00,VWS V14.01,2013-12-04 10:18:00,
2013-12-04 05:23:00,49.7,48.3,29.98,ESE,113,0.0,0.0,95,0.00,,---,0.00,VWS V14.01,2013-12-04 10:23:00,
2013-12-04 05:28:00,49.7,48.3,29.98,ESE,113,0.0,0.0,95,0.00,,---,0.00,VWS V14.01,2013-12-04 10:28:00,
2013-12-04 05:33:00,49.6,48.2,29.98,ESE,113,0.0,0.0,95,0.00,,---,0.00,VWS V14.01,2013-12-04 10:33:00,
2013-12-04 05:38:00,49.6,48.2,29.98,ESE,113,0.0,1.0,95,0.00,,---,0.00,VWS V14.01,2013-12-04 10:38:00,
2013-12-04 05:43:00,49.6,48.2,29.98,ESE,113,0.0,0.0,95,0.00,,---,0.00,VWS V14.01,2013-12-04 10:43:00,
2013-12-04 05:48:00,49.5,48.1,29.99,ESE,113,0.0,1.0,95,0.00,,---,0.00,VWS V14.01,2013-12-04 10:48:00,
2013-12-04 05:53:00,49.5,48.1,29.99,ESE,113,0.0,0.0,95,0.00,,---,0.00,VWS V14.01,2013-12-04 10:53:00,
2013-12-04 05:58:00,49.6,48.2,29.99,ESE,113,0.0,0.0,95,0.00,,---,0.00,VWS V14.01,2013-12-04 10:58:00,
2013-12-04 06:04:00,49.6,48.2,30.00,ESE,113,0.0,0.0,95,0.00,,---,0.00,VWS V14.01,2013-12-04 11:04:00,
2013-12-04 06:09:00,49.6,48.2,30.00,ESE,113,0.0,0.0,95,0.00,,---,0.00,VWS V14.01,2013-12-04 11:09:00,
2013-12-04 06:14:00,49.7,48.3,30.00,ESE,113,0.0,0.0,95,0.00,,---,0.00,VWS V14.01,2013-12-04 11:14:00,
2013-12-04 06:19:00,49.7,48.3,30.00,ESE,113,0.0,0.0,95,0.00,,---,0.00,VWS V14.01,2013-12-04 11:19:00,
2013-12-04 06:24:00,49.8,48.4,30.00,ESE,113,0.0,0.0,95,0.00,,---,0.00,VWS V14.01,2013-12-04 11:24:00,
2013-12-04 06:29:00,49.7,48.3,30.01,ESE,113,0.0,1.0,95,0.00,,---,0.00,VWS V14.01,2013-12-04 11:29:00,
2013-12-04 06:34:00,49.7,48.3,30.01,ESE,113,0.0,0.0,95,0.00,,---,0.00,VWS V14.01,2013-12-04 11:34:00,
2013-12-04 06:39:00,49.7,48.3,30.01,ESE,113,0.0,0.0,95,0.00,,---,0.00,VWS V14.01,2013-12-04 11:39:00,
2013-12-04 06:44:00,49.7,48.3,30.01,ESE,113,0.0,0.0,95,0.00,,---,0.00,VWS V14.01,2013-12-04 11:44:00,
2013-12-04 06:49:00,49.5,48.1,30.01,ESE,113,0.0,0.0,95,0.00,,---,0.00,VWS V14.01,2013-12-04 11:49:00,
2013-12-04 06:54:00,49.5,48.1,30.01,ESE,113,0.0,0.0,95,0.00,,---,0.00,VWS V14.01,2013-12-04 11:54:00,
2013-12-04 06:59:00,49.5,48.1,30.01,ESE,113,0.0,0.0,95,0.00,,---,0.00,VWS V14.01,2013-12-04 11:59:00,
2013-12-04 07:04:00,49.5,48.1,30.01,ESE,113,0.0,0.0,95,0.00,,---,0.00,VWS V14.01,2013-12-04 12:04:00,
2013-12-04 07:09:00,49.5,48.1,30.01,ESE,113,0.0,0.0,95,0.00,,---,0.00,VWS V14.01,2013-12-04 12:09:00,
2013-12-04 07:14:00,49.6,48.5,30.02,ESE,113,0.0,0.0,96,0.00,,---,0.00,VWS V14.01,2013-12-04 12:14:00,
2013-12-04 07:19:00,49.8,48.7,30.02,ESE,113,0.0,0.0,96,0.00,,---,0.00,VWS V14.01,2013-12-04 12:19:00,
2013-12-04 07:24:00,49.9,48.8,30.02,ESE,113,0.0,0.0,96,0.00,,---,0.00,VWS V14.01,2013-12-04 12:24:00,
2013-12-04 07:29:00,50.1,48.7,30.02,ESE,113,0.0,0.0,95,0.00,,---,0.00,VWS V14.01,2013-12-04 12:29:00,
2013-12-04 07:35:00,50.1,48.7,30.02,ESE,113,0.0,0.0,95,0.00,,---,0.00,VWS V14.01,2013-12-04 12:35:00,
2013-12-04 07:40:00,50.1,48.7,30.02,ESE,113,0.0,0.0,95,0.00,,---,0.00,VWS V14.01,2013-12-04 12:40:00,
2013-12-04 07:45:00,50.2,48.8,30.02,ESE,113,0.0,0.0,95,0.00,,---,0.00,VWS V14.01,2013-12-04 12:45:00,
2013-12-04 07:50:00,50.1,48.7,30.01,ESE,113,0.0,1.0,95,0.00,,---,0.00,VWS V14.01,2013-12-04 12:50:00,
2013-12-04 07:55:00,50.1,48.7,30.01,ESE,113,0.0,0.0,95,0.00,,---,0.00,VWS V14.01,2013-12-04 12:55:00,
2013-12-04 08:00:00,50.0,48.6,30.02,ESE,113,0.0,0.0,95,0.00,,---,0.00,VWS V14.01,2013-12-04 13:00:00,
2013-12-04 08:05:00,49.9,48.5,30.01,ESE,113,0.0,0.0,95,0.00,,---,0.00,VWS V14.01,2013-12-04 13:05:00,
2013-12-04 08:10:00,49.9,48.5,30.02,ESE,113,0.0,0.0,95,0.00,,---,0.00,VWS V14.01,2013-12-04 13:10:00,
2013-12-04 08:15:00,50.1,49.0,30.02,ESE,113,0.0,0.0,96,0.00,,---,0.00,VWS V14.01,2013-12-04 13:15:00,
2013-12-04 08:20:00,50.1,48.7,30.02,ESE,113,0.0,0.0,95,0.00,,---,0.00,VWS V14.01,2013-12-04 13:20:00,
2013-12-04 08:25:00,50.2,49.1,30.02,NNE,26,2.0,3.0,96,0.00,,---,0.00,VWS V14.01,2013-12-04 13:25:00,
2013-12-04 08:31:00,50.2,49.1,30.02,North,350,0.0,1.0,96,0.00,,---,0.00,VWS V14.01,2013-12-04 13:31:00,
2013-12-04 08:36:00,50.2,49.1,30.02,North,350,1.0,2.0,96,0.00,,---,0.00,VWS V14.01,2013-12-04 13:36:00,
2013-12-04 08:41:00,50.3,49.2,30.03,North,350,1.0,1.0,96,0.00,,---,0.00,VWS V14.01,2013-12-04 13:41:00,
2013-12-04 08:46:00,50.5,49.4,30.02,North,350,1.0,1.0,96,0.00,,---,0.00,VWS V14.01,2013-12-04 13:46:00,
2013-12-04 08:51:00,50.6,49.5,30.03,NNW,345,0.0,0.0,96,0.00,,---,0.00,VWS V14.01,2013-12-04 13:51:00,
2013-12-04 08:56:00,50.7,49.6,30.03,NNW,346,1.0,1.0,96,0.00,,---,0.00,VWS V14.01,2013-12-04 13:56:00,
2013-12-04 09:01:00,50.6,49.2,30.03,ESE,110,1.0,2.0,95,0.00,,---,0.00,VWS V14.01,2013-12-04 14:01:00,
2013-12-04 09:06:00,50.6,49.2,30.03,ESE,110,1.0,2.0,95,0.00,,---,0.00,VWS V14.01,2013-12-04 14:06:00,
2013-12-04 09:11:00,50.6,49.2,30.03,ESE,110,1.0,2.0,95,0.00,,---,0.00,VWS V14.01,2013-12-04 14:11:00,
2013-12-04 09:16:00,50.6,49.5,30.03,ESE,110,0.0,2.0,96,0.00,,---,0.00,VWS V14.01,2013-12-04 14:16:00,
2013-12-04 09:21:00,50.8,49.4,30.04,ESE,110,2.0,2.0,95,0.00,,---,0.00,VWS V14.01,2013-12-04 14:21:00,
2013-12-04 09:26:00,50.9,49.8,30.04,SE,140,2.0,3.0,96,0.00,,---,0.00,VWS V14.01,2013-12-04 14:26:00,
2013-12-04 09:31:00,50.8,49.4,30.05,ESE,118,3.0,3.0,95,0.00,,---,0.00,VWS V14.01,2013-12-04 14:31:00,
2013-12-04 09:36:00,50.8,49.4,30.05,ESE,114,1.0,3.0,95,0.00,,---,0.00,VWS V14.01,2013-12-04 14:36:00,
2013-12-04 09:41:00,50.7,49.3,30.05,ESE,114,2.0,2.0,95,0.00,,---,0.00,VWS V14.01,2013-12-04 14:41:00,
2013-12-04 09:47:00,50.8,49.7,30.06,ESE,114,2.0,3.0,96,0.00,,---,0.00,VWS V14.01,2013-12-04 14:47:00,
2013-12-04 09:52:00,50.8,49.4,30.06,ESE,114,0.0,2.0,95,0.00,,---,0.00,VWS V14.01,2013-12-04 14:52:00,
2013-12-04 09:57:00,50.9,49.8,30.06,East,91,3.0,3.0,96,0.00,,---,0.00,VWS V14.01,2013-12-04 14:57:00,
2013-12-04 10:02:00,50.9,49.5,30.06,East,90,1.0,2.0,95,0.00,,---,0.00,VWS V14.01,2013-12-04 15:02:00,
2013-12-04 10:07:00,50.9,49.5,30.06,East,90,1.0,2.0,95,0.00,,---,0.00,VWS V14.01,2013-12-04 15:07:00,
2013-12-04 10:12:00,50.9,49.5,30.06,East,90,1.0,2.0,95,0.00,,---,0.00,VWS V14.01,2013-12-04 15:12:00,
2013-12-04 10:17:00,51.0,49.6,30.06,East,90,0.0,2.0,95,0.00,,---,0.00,VWS V14.01,2013-12-04 15:17:00,
2013-12-04 10:22:00,51.1,50.0,30.06,East,90,2.0,3.0,96,0.00,,---,0.00,VWS V14.01,2013-12-04 15:22:00,
2013-12-04 10:27:00,51.3,49.9,30.06,East,90,0.0,3.0,95,0.00,,---,0.00,VWS V14.01,2013-12-04 15:27:00,
2013-12-04 10:32:00,51.4,50.0,30.06,East,90,0.0,2.0,95,0.00,,---,0.00,VWS V14.01,2013-12-04 15:32:00,
2013-12-04 10:37:00,51.4,50.0,30.06,East,90,0.0,2.0,95,0.00,,---,0.00,VWS V14.01,2013-12-04 15:37:00,
2013-12-04 10:42:00,51.8,50.4,30.06,East,90,0.0,1.0,95,0.00,,---,0.00,VWS V14.01,2013-12-04 15:42:00,
2013-12-04 10:48:00,52.0,50.3,30.06,East,90,0.0,2.0,94,0.00,,---,0.00,VWS V14.01,2013-12-04 15:48:00,
2013-12-04 10:53:00,52.4,50.7,30.06,SSE,165,0.0,3.0,94,0.00,,---,0.00,VWS V14.01,2013-12-04 15:53:00,
2013-12-04 10:58:00,52.6,50.6,30.06,SSE,165,0.0,3.0,93,0.00,,---,0.00,VWS V14.01,2013-12-04 15:58:00,
2013-12-04 11:03:00,52.8,50.5,30.06,SSE,159,0.0,2.0,92,0.00,,---,0.00,VWS V14.01,2013-12-04 16:03:00,
2013-12-04 11:08:00,53.0,50.7,30.06,SSE,159,0.0,2.0,92,0.00,,---,0.00,VWS V14.01,2013-12-04 16:08:00,
2013-12-04 11:13:00,53.2,50.9,30.06,SSE,159,0.0,1.0,92,0.00,,---,0.00,VWS V14.01,2013-12-04 16:13:00,
2013-12-04 11:18:00,53.5,51.2,30.06,SSE,159,0.0,1.0,92,0.00,,---,0.00,VWS V14.01,2013-12-04 16:18:00,
2013-12-04 11:23:00,54.0,51.7,30.05,SSE,159,0.0,1.0,92,0.00,,---,0.00,VWS V14.01,2013-12-04 16:23:00,
2013-12-04 11:28:00,54.2,51.3,30.05,SW,236,0.0,2.0,90,0.00,,---,0.00,VWS V14.01,2013-12-04 16:28:00,
2013-12-04 11:34:00,54.6,51.7,30.04,WSW,238,1.0,2.0,90,0.00,,---,0.00,VWS V14.01,2013-12-04 16:34:00,
2013-12-04 11:39:00,54.8,51.6,30.05,WNW,284,1.0,2.0,89,0.00,,---,0.00,VWS V14.01,2013-12-04 16:39:00,
2013-12-04 11:44:00,55.1,52.2,30.04,NNE,31,2.0,3.0,90,0.00,,---,0.00,VWS V14.01,2013-12-04 16:44:00,
2013-12-04 11:49:00,55.1,52.2,30.03,NE,44,0.0,3.0,90,0.00,,---,0.00,VWS V14.01,2013-12-04 16:49:00,
2013-12-04 11:54:00,55.2,52.0,30.03,NE,44,1.0,1.0,89,0.00,,---,0.00,VWS V14.01,2013-12-04 16:54:00,
2013-12-04 11:59:00,55.3,52.1,30.03,NE,40,2.0,2.0,89,0.00,,---,0.00,VWS V14.01,2013-12-04 16:59:00,
2013-12-04 12:04:00,55.0,51.5,30.03,NE,39,0.0,2.0,88,0.00,,---,0.00,VWS V14.01,2013-12-04 17:04:00,
2013-12-04 12:09:00,55.1,51.6,30.03,NE,39,1.0,2.0,88,0.00,,---,0.00,VWS V14.01,2013-12-04 17:09:00,
2013-12-04 12:14:00,55.2,51.7,30.02,NE,39,1.0,1.0,88,0.00,,---,0.00,VWS V14.01,2013-12-04 17:14:00,
2013-12-04 12:20:00,55.4,51.9,30.02,NE,39,0.0,2.0,88,0.00,,---,0.00,VWS V14.01,2013-12-04 17:20:00,
2013-12-04 12:25:00,55.7,52.2,30.01,NNE,23,0.0,2.0,88,0.00,,---,0.00,VWS V14.01,2013-12-04 17:25:00,
2013-12-04 12:30:00,56.0,52.2,30.01,ENE,57,2.0,3.0,87,0.00,,---,0.00,VWS V14.01,2013-12-04 17:30:00,
2013-12-04 12:35:00,56.3,52.5,30.01,ESE,111,1.0,3.0,87,0.00,,---,0.00,VWS V14.01,2013-12-04 17:35:00,
2013-12-04 12:40:00,56.2,52.4,30.01,SE,128,0.0,3.0,87,0.00,,---,0.00,VWS V14.01,2013-12-04 17:40:00,
2013-12-04 12:45:00,56.2,52.4,30.00,ESE,122,1.0,3.0,87,0.00,,---,0.00,VWS V14.01,2013-12-04 17:45:00,
2013-12-04 12:50:00,56.2,52.4,30.00,East,88,0.0,3.0,87,0.00,,---,0.00,VWS V14.01,2013-12-04 17:50:00,
2013-12-04 12:55:00,56.2,52.1,30.00,East,88,0.0,0.0,86,0.00,,---,0.00,VWS V14.01,2013-12-04 17:55:00,
2013-12-04 13:00:00,56.5,52.7,30.00,East,88,0.0,0.0,87,0.00,,---,0.00,VWS V14.01,2013-12-04 18:00:00,
2013-12-04 13:05:00,56.7,52.6,30.00,East,88,0.0,0.0,86,0.00,,---,0.00,VWS V14.01,2013-12-04 18:05:00,
2013-12-04 13:10:00,56.9,52.4,30.00,East,88,0.0,0.0,85,0.00,,---,0.00,VWS V14.01,2013-12-04 18:10:00,
2013-12-04 13:15:00,56.9,52.4,30.00,East,92,1.0,1.0,85,0.00,,---,0.00,VWS V14.01,2013-12-04 18:15:00,
2013-12-04 13:20:00,56.9,52.4,29.99,NNE,31,0.0,1.0,85,0.00,,---,0.00,VWS V14.01,2013-12-04 18:20:00,
2013-12-04 13:26:00,57.1,53.0,29.99,NNE,31,1.0,1.0,86,0.00,,---,0.00,VWS V14.01,2013-12-04 18:26:00,
2013-12-04 13:31:00,57.3,53.2,29.99,NNE,31,0.0,0.0,86,0.00,,---,0.00,VWS V14.01,2013-12-04 18:31:00,
2013-12-04 13:36:00,57.4,52.9,29.99,NNE,31,0.0,1.0,85,0.00,,---,0.00,VWS V14.01,2013-12-04 18:36:00,
2013-12-04 13:41:00,57.5,53.0,29.99,NNE,31,0.0,0.0,85,0.00,,---,0.00,VWS V14.01,2013-12-04 18:41:00,
2013-12-04 13:46:00,57.7,52.9,29.99,NNE,31,0.0,1.0,84,0.00,,---,0.00,VWS V14.01,2013-12-04 18:46:00,
2013-12-04 13:51:00,57.8,53.0,29.99,NNE,31,0.0,0.0,84,0.00,,---,0.00,VWS V14.01,2013-12-04 18:51:00,
2013-12-04 13:56:00,57.8,53.0,29.99,NNE,31,0.0,2.0,84,0.00,,---,0.00,VWS V14.01,2013-12-04 18:56:00,
2013-12-04 14:01:00,57.8,52.7,29.99,NNE,31,0.0,0.0,83,0.00,,---,0.00,VWS V14.01,2013-12-04 19:01:00,
2013-12-04 14:06:00,57.8,53.0,29.99,SSE,160,1.0,2.0,84,0.00,,---,0.00,VWS V14.01,2013-12-04 19:06:00,
2013-12-04 14:11:00,57.7,52.9,29.99,South,187,1.0,1.0,84,0.00,,---,0.00,VWS V14.01,2013-12-04 19:11:00,
2013-12-04 14:16:00,57.6,52.8,29.99,SW,215,3.0,3.0,84,0.00,,---,0.00,VWS V14.01,2013-12-04 19:16:00,
2013-12-04 14:21:00,57.3,52.8,29.98,SSW,203,1.0,3.0,85,0.00,,---,0.00,VWS V14.01,2013-12-04 19:21:00,
2013-12-04 14:27:00,57.2,52.7,29.98,SSE,152,2.0,4.0,85,0.00,,---,0.00,VWS V14.01,2013-12-04 19:27:00,
2013-12-04 14:32:00,56.9,52.8,29.99,South,186,2.0,4.0,86,0.00,,---,0.00,VWS V14.01,2013-12-04 19:32:00,
2013-12-04 14:37:00,56.8,52.7,29.98,SSW,209,3.0,4.0,86,0.00,,---,0.00,VWS V14.01,2013-12-04 19:37:00,
2013-12-04 14:42:00,56.7,52.9,29.98,SSW,199,1.0,1.0,87,0.00,,---,0.00,VWS V14.01,2013-12-04 19:42:00,
2013-12-04 14:47:00,56.7,52.9,29.98,SE,146,3.0,3.0,87,0.00,,---,0.00,VWS V14.01,2013-12-04 19:47:00,
2013-12-04 14:52:00,56.6,52.8,29.98,SSE,152,1.0,3.0,87,0.00,,---,0.00,VWS V14.01,2013-12-04 19:52:00,
2013-12-04 14:57:00,56.5,52.7,29.98,SSE,149,0.0,3.0,87,0.00,,---,0.00,VWS V14.01,2013-12-04 19:57:00,
2013-12-04 15:02:00,56.4,52.9,29.98,ESE,113,2.0,3.0,88,0.00,,---,0.00,VWS V14.01,2013-12-04 20:02:00,
2013-12-04 15:07:00,56.4,52.9,29.99,ESE,113,2.0,3.0,88,0.00,,---,0.00,VWS V14.01,2013-12-04 20:07:00,
2013-12-04 15:13:00,56.4,52.9,29.99,ESE,122,2.0,4.0,88,0.00,,---,0.00,VWS V14.01,2013-12-04 20:13:00,
2013-12-04 15:18:00,56.4,52.9,29.99,SE,140,0.0,4.0,88,0.00,,---,0.00,VWS V14.01,2013-12-04 20:18:00,
2013-12-04 15:23:00,56.5,53.0,29.99,SE,134,0.0,0.0,88,0.00,,---,0.00,VWS V14.01,2013-12-04 20:23:00,
2013-12-04 15:28:00,56.5,53.0,29.99,SE,128,1.0,3.0,88,0.00,,---,0.00,VWS V14.01,2013-12-04 20:28:00,
2013-12-04 15:33:00,56.6,53.1,29.99,SE,128,0.0,1.0,88,0.00,,---,0.00,VWS V14.01,2013-12-04 20:33:00,
2013-12-04 15:38:00,56.6,53.1,30.00,SE,128,0.0,3.0,88,0.00,,---,0.00,VWS V14.01,2013-12-04 20:38:00,
2013-12-04 15:43:00,56.6,53.1,30.00,SE,128,1.0,2.0,88,0.00,,---,0.00,VWS V14.01,2013-12-04 20:43:00,
2013-12-04 15:48:00,56.6,53.1,30.00,SE,128,1.0,2.0,88,0.00,,---,0.00,VWS V14.01,2013-12-04 20:48:00,
2013-12-04 15:53:00,56.6,53.1,30.00,SE,128,0.0,1.0,88,0.00,,---,0.00,VWS V14.01,2013-12-04 20:53:00,
2013-12-04 15:58:00,56.6,53.1,30.00,SE,128,1.0,1.0,88,0.00,,---,0.00,VWS V14.01,2013-12-04 20:58:00,
2013-12-04 16:03:00,56.5,53.0,30.00,SE,128,0.0,0.0,88,0.00,,---,0.00,VWS V14.01,2013-12-04 21:03:00,
2013-12-04 16:08:00,56.5,53.0,30.00,SE,128,0.0,1.0,88,0.00,,---,0.00,VWS V14.01,2013-12-04 21:08:00,
2013-12-04 16:13:00,56.5,53.3,30.00,SE,128,0.0,1.0,89,0.00,,---,0.00,VWS V14.01,2013-12-04 21:13:00,
2013-12-04 16:18:00,56.4,53.2,30.00,SE,128,1.0,2.0,89,0.00,,---,0.00,VWS V14.01,2013-12-04 21:18:00,
2013-12-04 16:23:00,56.3,53.1,30.00,SE,128,1.0,2.0,89,0.00,,---,0.00,VWS V14.01,2013-12-04 21:23:00,
2013-12-04 16:28:00,56.2,53.0,30.01,SE,128,0.0,2.0,89,0.00,,---,0.00,VWS V14.01,2013-12-04 21:28:00,
2013-12-04 16:33:00,56.2,53.0,30.01,SE,128,0.0,1.0,89,0.00,,---,0.00,VWS V14.01,2013-12-04 21:33:00,
2013-12-04 16:39:00,56.2,53.0,30.00,SE,128,0.0,2.0,89,0.00,,---,0.00,VWS V14.01,2013-12-04 21:39:00,
2013-12-04 16:44:00,56.2,53.3,30.00,SE,128,1.0,2.0,90,0.00,,---,0.00,VWS V14.01,2013-12-04 21:44:00,
2013-12-04 16:49:00,56.1,53.2,30.00,SE,128,0.0,2.0,90,0.00,,---,0.00,VWS V14.01,2013-12-04 21:49:00,
2013-12-04 16:54:00,56.0,53.1,30.00,SE,128,1.0,2.0,90,0.00,,---,0.00,VWS V14.01,2013-12-04 21:54:00,
2013-12-04 16:59:00,55.9,53.0,30.01,SE,128,0.0,2.0,90,0.00,,---,0.00,VWS V14.01,2013-12-04 21:59:00,
2013-12-04 17:04:00,55.9,53.0,30.01,SE,128,1.0,1.0,90,0.00,,---,0.00,VWS V14.01,2013-12-04 22:04:00,
2013-12-04 17:09:00,55.9,53.0,30.01,SE,128,1.0,3.0,90,0.00,,---,0.00,VWS V14.01,2013-12-04 22:09:00,
2013-12-04 17:14:00,55.9,53.0,30.01,SE,128,0.0,2.0,90,0.00,,---,0.00,VWS V14.01,2013-12-04 22:14:00,
2013-12-04 17:19:00,55.9,53.0,30.01,SE,128,0.0,2.0,90,0.00,,---,0.00,VWS V14.01,2013-12-04 22:19:00,
2013-12-04 17:24:00,55.9,53.0,30.01,SE,128,0.0,1.0,90,0.00,,---,0.00,VWS V14.01,2013-12-04 22:24:00,
2013-12-04 17:29:00,55.8,52.9,30.01,SE,128,0.0,1.0,90,0.00,,---,0.00,VWS V14.01,2013-12-04 22:29:00,
2013-12-04 17:34:00,55.9,53.3,30.02,SE,128,1.0,1.0,91,0.00,,---,0.00,VWS V14.01,2013-12-04 22:34:00,
2013-12-04 17:39:00,55.9,53.3,30.02,SE,128,0.0,1.0,91,0.00,,---,0.00,VWS V14.01,2013-12-04 22:39:00,
2013-12-04 17:44:00,55.8,53.2,30.02,SE,128,1.0,1.0,91,0.00,,---,0.00,VWS V14.01,2013-12-04 22:44:00,
2013-12-04 17:49:00,55.8,53.2,30.02,SSE,153,0.0,3.0,91,0.00,,---,0.00,VWS V14.01,2013-12-04 22:49:00,
2013-12-04 17:54:00,55.7,53.1,30.02,SSE,153,0.0,1.0,91,0.00,,---,0.00,VWS V14.01,2013-12-04 22:54:00,
2013-12-04 17:59:00,55.7,53.1,30.02,SSE,153,0.0,1.0,91,0.00,,---,0.00,VWS V14.01,2013-12-04 22:59:00,
2013-12-04 18:05:00,55.7,53.4,30.02,SSE,153,0.0,1.0,92,0.00,,---,0.00,VWS V14.01,2013-12-04 23:05:00,
2013-12-04 18:10:00,55.5,53.2,30.02,SSE,153,0.0,1.0,92,0.00,,---,0.00,VWS V14.01,2013-12-04 23:10:00,
2013-12-04 18:15:00,55.4,53.1,30.01,SSE,153,1.0,1.0,92,0.00,,---,0.00,VWS V14.01,2013-12-04 23:15:00,
2013-12-04 18:20:00,55.3,53.0,30.02,SSE,153,0.0,1.0,92,0.00,,---,0.00,VWS V14.01,2013-12-04 23:20:00,
2013-12-04 18:25:00,55.3,53.0,30.02,SSE,153,0.0,0.0,92,0.00,,---,0.00,VWS V14.01,2013-12-04 23:25:00,
2013-12-04 18:30:00,55.2,53.2,30.02,SSE,153,0.0,1.0,93,0.00,,---,0.00,VWS V14.01,2013-12-04 23:30:00,
2013-12-04 18:35:00,55.2,53.2,30.03,SSE,153,0.0,0.0,93,0.00,,---,0.00,VWS V14.01,2013-12-04 23:35:00,
2013-12-04 18:40:00,55.3,53.3,30.02,SSE,153,0.0,0.0,93,0.00,,---,0.00,VWS V14.01,2013-12-04 23:40:00,
2013-12-04 18:45:00,55.2,53.2,30.03,SSE,153,0.0,1.0,93,0.00,,---,0.00,VWS V14.01,2013-12-04 23:45:00,
2013-12-04 18:50:00,55.0,53.0,30.03,SSE,153,0.0,0.0,93,0.00,,---,0.00,VWS V14.01,2013-12-04 23:50:00,
2013-12-04 18:55:00,54.9,52.9,30.03,SSE,153,0.0,0.0,93,0.00,,---,0.00,VWS V14.01,2013-12-04 23:55:00,
2013-12-04 19:00:00,55.0,53.0,30.03,SSE,153,0.0,0.0,93,0.00,,---,0.00,VWS V14.01,2013-12-05 00:00:00,
2013-12-04 19:05:00,54.9,53.2,30.03,SSE,153,0.0,0.0,94,0.00,,---,0.00,VWS V14.01,2013-12-05 00:05:00,
2013-12-04 19:10:00,55.0,53.3,30.02,SSE,153,0.0,0.0,94,0.00,,---,0.00,VWS V14.01,2013-12-05 00:10:00,
2013-12-04 19:15:00,55.0,53.3,30.03,SSE,153,0.0,1.0,94,0.00,,---,0.00,VWS V14.01,2013-12-05 00:15:00,
2013-12-04 19:20:00,55.0,53.3,30.03,SSE,153,0.0,0.0,94,0.00,,---,0.00,VWS V14.01,2013-12-05 00:20:00,
2013-12-04 19:25:00,54.9,53.2,30.03,SSE,153,0.0,0.0,94,0.00,,---,0.00,VWS V14.01,2013-12-05 00:25:00,
2013-12-04 19:30:00,55.0,53.3,30.04,SSE,153,0.0,0.0,94,0.00,,---,0.00,VWS V14.01,2013-12-05 00:30:00,
2013-12-04 19:36:00,55.0,53.0,30.03,SSE,153,0.0,0.0,93,0.00,,---,0.00,VWS V14.01,2013-12-05 00:36:00,
2013-12-04 19:41:00,54.9,52.9,30.03,SSE,153,1.0,1.0,93,0.00,,---,0.00,VWS V14.01,2013-12-05 00:41:00,
2013-12-04 19:46:00,54.6,52.9,30.03,SSE,153,0.0,1.0,94,0.00,,---,0.00,VWS V14.01,2013-12-05 00:46:00,
2013-12-04 19:51:00,54.3,52.6,30.03,SSE,153,0.0,0.0,94,0.00,,---,0.00,VWS V14.01,2013-12-05 00:51:00,
2013-12-04 19:56:00,54.2,52.5,30.03,SSE,153,0.0,0.0,94,0.00,,---,0.00,VWS V14.01,2013-12-05 00:56:00,
2013-12-04 20:01:00,54.2,52.8,30.03,SSE,153,0.0,0.0,95,0.00,,---,0.00,VWS V14.01,2013-12-05 01:01:00,
2013-12-04 20:06:00,54.3,52.9,30.03,SSE,153,0.0,0.0,95,0.00,,---,0.00,VWS V14.01,2013-12-05 01:06:00,
2013-12-04 20:11:00,54.3,52.6,30.02,SSE,153,0.0,0.0,94,0.00,,---,0.00,VWS V14.01,2013-12-05 01:11:00,
2013-12-04 20:16:00,54.3,52.9,30.03,SSE,153,0.0,0.0,95,0.00,,---,0.00,VWS V14.01,2013-12-05 01:16:00,
2013-12-04 20:21:00,54.3,52.6,30.03,SSE,153,0.0,0.0,94,0.00,,---,0.00,VWS V14.01,2013-12-05 01:21:00,
2013-12-04 20:26:00,54.2,52.8,30.03,SSE,153,0.0,0.0,95,0.00,,---,0.00,VWS V14.01,2013-12-05 01:26:00,
2013-12-04 20:31:00,54.3,52.9,30.03,SSE,153,0.0,0.0,95,0.00,,---,0.00,VWS V14.01,2013-12-05 01:31:00,
2013-12-04 20:36:00,54.4,53.0,30.03,SSE,153,0.0,0.0,95,0.00,,---,0.00,VWS V14.01,2013-12-05 01:36:00,
2013-12-04 20:41:00,54.5,53.1,30.04,SSE,153,0.0,0.0,95,0.00,,---,0.00,VWS V14.01,2013-12-05 01:41:00,
2013-12-04 20:46:00,54.6,53.2,30.04,SSE,153,0.0,0.0,95,0.00,,---,0.00,VWS V14.01,2013-12-05 01:46:00,
2013-12-04 20:51:00,54.6,52.9,30.03,SSE,153,0.0,0.0,94,0.00,,---,0.00,VWS V14.01,2013-12-05 01:51:00,
2013-12-04 20:56:00,54.5,52.8,30.04,SSE,153,0.0,0.0,94,0.00,,---,0.00,VWS V14.01,2013-12-05 01:56:00,
2013-12-04 21:02:00,54.5,52.8,30.04,SSE,153,0.0,0.0,94,0.00,,---,0.00,VWS V14.01,2013-12-05 02:02:00,
2013-12-04 21:07:00,54.6,52.9,30.03,SSE,153,0.0,0.0,94,0.00,,---,0.00,VWS V14.01,2013-12-05 02:07:00,
2013-12-04 21:12:00,54.7,53.0,30.04,SSE,153,0.0,0.0,94,0.00,,---,0.00,VWS V14.01,2013-12-05 02:12:00,
2013-12-04 21:17:00,54.7,53.0,30.04,SSE,153,0.0,0.0,94,0.00,,---,0.00,VWS V14.01,2013-12-05 02:17:00,
2013-12-04 21:22:00,54.8,53.1,30.04,SSE,153,0.0,0.0,94,0.00,,---,0.00,VWS V14.01,2013-12-05 02:22:00,
2013-12-04 21:27:00,54.7,53.0,30.04,SSE,153,0.0,0.0,94,0.00,,---,0.00,VWS V14.01,2013-12-05 02:27:00,
2013-12-04 21:32:00,54.6,52.9,30.05,SSE,153,0.0,0.0,94,0.00,,---,0.00,VWS V14.01,2013-12-05 02:32:00,
2013-12-04 21:37:00,54.6,52.9,30.05,SSE,153,0.0,0.0,94,0.00,,---,0.00,VWS V14.01,2013-12-05 02:37:00,
2013-12-04 21:42:00,54.7,53.0,30.05,SSE,153,0.0,0.0,94,0.00,,---,0.00,VWS V14.01,2013-12-05 02:42:00,
2013-12-04 21:47:00,54.6,52.9,30.05,SSE,153,0.0,1.0,94,0.00,,---,0.00,VWS V14.01,2013-12-05 02:47:00,
2013-12-04 21:52:00,54.5,52.8,30.05,SSE,153,0.0,0.0,94,0.00,,---,0.00,VWS V14.01,2013-12-05 02:52:00,
2013-12-04 21:57:00,54.3,52.6,30.05,SSE,153,0.0,0.0,94,0.00,,---,0.00,VWS V14.01,2013-12-05 02:57:00,
2013-12-04 22:02:00,54.2,52.5,30.05,SSE,153,0.0,0.0,94,0.00,,---,0.00,VWS V14.01,2013-12-05 03:02:00,
2013-12-04 22:07:00,54.1,52.7,30.05,SSE,153,0.0,0.0,95,0.00,,---,0.00,VWS V14.01,2013-12-05 03:07:00,
2013-12-04 22:12:00,54.0,52.6,30.05,SSE,153,0.0,0.0,95,0.00,,---,0.00,VWS V14.01,2013-12-05 03:12:00,
2013-12-04 22:17:00,54.1,53.0,30.05,SSE,153,0.0,0.0,96,0.00,,---,0.00,VWS V14.01,2013-12-05 03:17:00,
2013-12-04 22:22:00,54.2,53.1,30.05,SSE,153,0.0,0.0,96,0.00,,---,0.00,VWS V14.01,2013-12-05 03:22:00,
2013-12-04 22:27:00,54.2,52.8,30.05,SSE,153,0.0,0.0,95,0.00,,---,0.00,VWS V14.01,2013-12-05 03:27:00,
2013-12-04 22:33:00,54.2,52.8,30.05,SSE,153,0.0,0.0,95,0.00,,---,0.00,VWS V14.01,2013-12-05 03:33:00,
2013-12-04 22:38:00,54.3,52.9,30.05,SSE,153,0.0,0.0,95,0.00,,---,0.00,VWS V14.01,2013-12-05 03:38:00,
2013-12-04 22:43:00,54.3,52.9,30.05,SSE,153,0.0,0.0,95,0.00,,---,0.00,VWS V14.01,2013-12-05 03:43:00,
2013-12-04 22:48:00,54.3,52.9,30.05,SSE,153,0.0,0.0,95,0.00,,---,0.00,VWS V14.01,2013-12-05 03:48:00,
2013-12-04 22:53:00,54.2,52.8,30.05,SSE,153,0.0,0.0,95,0.00,,---,0.00,VWS V14.01,2013-12-05 03:53:00,
2013-12-04 22:58:00,54.2,52.8,30.06,SSE,153,0.0,0.0,95,0.00,,---,0.00,VWS V14.01,2013-12-05 03:58:00,
2013-12-04 23:03:00,54.3,52.9,30.06,SSE,153,0.0,0.0,95,0.00,,---,0.00,VWS V14.01,2013-12-05 04:03:00,
2013-12-04 23:08:00,54.3,52.9,30.06,SSE,153,0.0,0.0,95,0.00,,---,0.00,VWS V14.01,2013-12-05 04:08:00,
2013-12-04 23:13:00,54.2,52.8,30.07,SSE,153,0.0,0.0,95,0.00,,---,0.00,VWS V14.01,2013-12-05 04:13:00,
2013-12-04 23:18:00,54.2,52.8,30.07,SSE,153,0.0,0.0,95,0.00,,---,0.00,VWS V14.01,2013-12-05 04:18:00,
2013-12-04 23:23:00,54.1,52.7,30.07,SSE,153,0.0,0.0,95,0.00,,---,0.00,VWS V14.01,2013-12-05 04:23:00,
2013-12-04 23:28:00,54.0,52.3,30.07,SSE,153,0.0,0.0,94,0.00,,---,0.00,VWS V14.01,2013-12-05 04:28:00,
2013-12-04 23:33:00,53.9,52.5,30.07,SSE,153,0.0,0.0,95,0.00,,---,0.00,VWS V14.01,2013-12-05 04:33:00,
2013-12-04 23:38:00,53.8,52.4,30.07,SSE,153,0.0,0.0,95,0.00,,---,0.00,VWS V14.01,2013-12-05 04:38:00,
2013-12-04 23:43:00,53.8,52.4,30.07,SSE,153,0.0,0.0,95,0.00,,---,0.00,VWS V14.01,2013-12-05 04:43:00,
2013-12-04 23:48:00,53.8,52.4,30.07,SSE,153,0.0,0.0,95,0.00,,---,0.00,VWS V14.01,2013-12-05 04:48:00,
2013-12-04 23:53:00,53.8,52.7,30.07,SSE,153,0.0,0.0,96,0.00,,---,0.00,VWS V14.01,2013-12-05 04:53:00,
2013-12-04 23:59:00,53.9,52.5,30.07,SSE,153,0.0,0.0,95,0.00,,---,0.00,VWS V14.01,2013-12-05 04:59:00,